Torna al catalogo

STARLINK-34925

AttivoComunicazioniSSO
NORAD 65249·PAYLOAD·🇺🇸 United States

Lanciato Aug 18, 2025 da Vandenberg Space Force Base

Loading…

Prossimi Passaggi (prossime 24 ore)

TLE

AggiornatoSource: CelesTrak SupGP

Epoca: Sep 14, 2026, 21:28 UTC

1 65249C 25179Q   26257.89493056  .00007463  00000+0  23175-3 0  2573
2 65249  97.2829 297.3027 0001233  93.0805 271.4539 15.33425143    12

Traccia STARLINK-34925 in tempo reale con AllMySat

Download on the App Store